AZA1692 LICJ-LIMC

Flight info

Callsign AZA1692
Flight time 1h 29m
Altitude 38000
Route GIANO DCT POKAV DCT VELAD DCT NORNI DCT UPDIN DCT SPEZI DCT IDONA DCT MEBUR
Aircraft A320/M-SDE3FGHIRWY/LB1

Departure

Time 2026-02-19 09:08
Airport Falcone–Borsellino Airport (LICJ)

Arrival

Time 2026-02-19 10:37
Airport Milan Malpensa International Airport (LIMC)
Time Latitude Longitude Altitude Speed Heading
2026-02-19 08:52 38.18304 13.10161 65 ft 0 kts 67°
2026-02-19 09:02 38.18301 13.10150 60 ft 2 kts 67°
2026-02-19 09:02 38.18294 13.10130 61 ft 2 kts 81°
2026-02-19 09:02 38.18297 13.10110 60 ft 2 kts 149°
2026-02-19 09:02 38.18298 13.10109 60 ft 0 kts 153°
2026-02-19 09:04 38.18288 13.10112 59 ft 5 kts 169°
2026-02-19 09:05 38.18244 13.10120 63 ft 8 kts 177°
2026-02-19 09:05 38.18193 13.10065 59 ft 13 kts 245°
2026-02-19 09:05 38.18151 13.09944 63 ft 17 kts 245°
2026-02-19 09:05 38.18160 13.09832 60 ft 14 kts 328°
2026-02-19 09:06 38.18244 13.09782 64 ft 13 kts 338°
2026-02-19 09:06 38.18309 13.09722 61 ft 11 kts 299°
2026-02-19 09:06 38.18328 13.09673 62 ft 0 kts 296°
2026-02-19 09:07 38.18342 13.09635 63 ft 12 kts 294°
2026-02-19 09:07 38.18346 13.09548 62 ft 8 kts 245°
2026-02-19 09:07 38.18296 13.09506 67 ft 16 kts 205°
2026-02-19 09:07 38.17956 13.09317 69 ft 90 kts 203°
2026-02-19 09:08 38.17194 13.08895 119 ft 141 kts 200°
2026-02-19 09:08 38.15160 13.07459 847 ft 199 kts 222°
2026-02-19 09:08 38.14418 13.06014 1866 ft 196 kts 239°
2026-02-19 09:09 38.14052 13.04342 2869 ft 199 kts 255°
2026-02-19 09:09 38.14127 13.02569 3841 ft 205 kts 275°
2026-02-19 09:09 38.14679 13.00870 4734 ft 214 kts 295°
2026-02-19 09:09 38.15652 12.99378 5415 ft 233 kts 313°
2026-02-19 09:10 38.17099 12.98169 5853 ft 262 kts 323°
2026-02-19 09:10 38.18703 12.96947 6576 ft 272 kts 324°
2026-02-19 09:10 38.20346 12.95721 7470 ft 275 kts 324°
2026-02-19 09:10 38.21982 12.94501 8385 ft 277 kts 324°
2026-02-19 09:11 38.23653 12.93250 9305 ft 280 kts 324°
2026-02-19 09:11 38.25336 12.91983 10172 ft 284 kts 324°
2026-02-19 09:11 38.27104 12.90640 10507 ft 307 kts 323°
2026-02-19 09:11 38.28991 12.89199 10960 ft 322 kts 324°
2026-02-19 09:12 38.30934 12.87720 11689 ft 328 kts 324°
2026-02-19 09:12 38.34893 12.84720 13281 ft 335 kts 324°
2026-02-19 09:12 38.36903 12.83198 14031 ft 338 kts 323°
2026-02-19 09:13 38.38935 12.81657 14718 ft 341 kts 323°
2026-02-19 09:13 38.40980 12.80097 15391 ft 344 kts 323°
2026-02-19 09:13 38.43043 12.78516 16080 ft 348 kts 323°
2026-02-19 09:13 38.45125 12.76919 16765 ft 351 kts 322°
2026-02-19 09:14 38.47225 12.75308 17435 ft 354 kts 322°
2026-02-19 09:14 38.49347 12.73684 18098 ft 357 kts 322°
2026-02-19 09:14 38.51490 12.72044 18687 ft 361 kts 322°
2026-02-19 09:14 38.53647 12.70390 19273 ft 363 kts 322°
2026-02-19 09:15 38.55821 12.68724 19868 ft 366 kts 322°
2026-02-19 09:15 38.57984 12.67066 20462 ft 368 kts 322°
2026-02-19 09:15 38.60187 12.65371 21055 ft 371 kts 322°
2026-02-19 09:15 38.62403 12.63661 21646 ft 373 kts 322°
2026-02-19 09:16 38.64633 12.61940 22231 ft 376 kts 322°
2026-02-19 09:16 38.69154 12.58465 23394 ft 382 kts 322°
2026-02-19 09:16 38.71442 12.56710 23866 ft 385 kts 322°
2026-02-19 09:17 38.73743 12.54936 24328 ft 387 kts 322°
2026-02-19 09:17 38.76058 12.53152 24796 ft 388 kts 321°
2026-02-19 09:17 38.78375 12.51360 25250 ft 390 kts 321°
2026-02-19 09:17 38.80704 12.49559 25697 ft 392 kts 321°
2026-02-19 09:18 38.83040 12.47751 26132 ft 393 kts 321°
2026-02-19 09:18 38.85388 12.45934 26558 ft 395 kts 321°
2026-02-19 09:18 38.86982 12.44784 26832 ft 400 kts 326°
2026-02-19 09:18 38.89576 12.43368 27243 ft 407 kts 330°
2026-02-19 09:19 38.92208 12.42014 27669 ft 409 kts 329°
2026-02-19 09:19 38.95715 12.40209 28180 ft 412 kts 329°
2026-02-19 09:19 38.98386 12.38832 28531 ft 415 kts 329°
2026-02-19 09:19 39.00196 12.37895 28777 ft 416 kts 329°
2026-02-19 09:20 39.03764 12.36041 29254 ft 419 kts 329°
2026-02-19 09:20 39.08305 12.33681 29843 ft 422 kts 329°
2026-02-19 09:20 39.11032 12.32266 30138 ft 424 kts 329°
2026-02-19 09:21 39.13772 12.30846 30426 ft 425 kts 329°
2026-02-19 09:21 39.16518 12.29422 30722 ft 427 kts 328°
2026-02-19 09:21 39.19245 12.28004 30961 ft 429 kts 328°
2026-02-19 09:21 39.22017 12.26559 31198 ft 431 kts 328°
2026-02-19 09:22 39.24801 12.25105 31461 ft 432 kts 328°
2026-02-19 09:22 39.27584 12.23653 31810 ft 431 kts 328°
2026-02-19 09:22 39.30362 12.22208 32163 ft 429 kts 328°
2026-02-19 09:22 39.33130 12.20766 32517 ft 428 kts 328°
2026-02-19 09:23 39.35885 12.19330 32868 ft 427 kts 328°
2026-02-19 09:23 39.38642 12.17890 33217 ft 426 kts 328°
2026-02-19 09:23 39.41388 12.16451 33601 ft 425 kts 328°
2026-02-19 09:23 39.44125 12.15012 33936 ft 424 kts 328°
2026-02-19 09:24 39.46858 12.13572 34225 ft 424 kts 328°
2026-02-19 09:24 39.52313 12.10696 34791 ft 423 kts 328°
2026-02-19 09:24 39.55033 12.09264 35054 ft 422 kts 328°
2026-02-19 09:25 39.57716 12.07849 35305 ft 422 kts 328°
2026-02-19 09:25 39.60438 12.06417 35547 ft 422 kts 328°
2026-02-19 09:25 39.63158 12.04988 35825 ft 421 kts 328°
2026-02-19 09:25 39.65874 12.03560 36074 ft 421 kts 327°
2026-02-19 09:26 39.68589 12.02126 36269 ft 421 kts 327°
2026-02-19 09:26 39.71305 12.00686 36491 ft 421 kts 327°
2026-02-19 09:26 39.74020 11.99245 36706 ft 421 kts 327°
2026-02-19 09:26 39.76736 11.97802 36922 ft 421 kts 327°
2026-02-19 09:27 39.79444 11.96365 37137 ft 421 kts 327°
2026-02-19 09:27 39.82157 11.94922 37349 ft 420 kts 327°
2026-02-19 09:27 39.84859 11.93484 37555 ft 420 kts 328°
2026-02-19 09:27 39.87563 11.92047 37795 ft 420 kts 327°
2026-02-19 09:28 39.90272 11.90607 37865 ft 420 kts 327°
2026-02-19 09:28 39.98359 11.86312 37852 ft 420 kts 327°
2026-02-19 09:29 40.03763 11.83424 37855 ft 420 kts 327°
2026-02-19 09:29 40.09163 11.80528 37847 ft 419 kts 327°
2026-02-19 09:30 40.14568 11.77631 37847 ft 420 kts 327°
2026-02-19 09:30 40.19974 11.74736 37840 ft 420 kts 327°
2026-02-19 09:31 40.25375 11.71828 37839 ft 420 kts 327°
2026-02-19 09:31 40.30779 11.68914 37841 ft 420 kts 327°
2026-02-19 09:32 40.38903 11.64524 37826 ft 421 kts 327°
2026-02-19 09:33 40.44330 11.61592 37819 ft 422 kts 327°
2026-02-19 09:33 40.49769 11.58643 37811 ft 423 kts 327°
2026-02-19 09:34 40.55183 11.55705 37845 ft 423 kts 327°
2026-02-19 09:34 40.60630 11.52740 37828 ft 424 kts 327°
2026-02-19 09:35 40.66087 11.49761 37830 ft 425 kts 327°
2026-02-19 09:35 40.71559 11.46773 37821 ft 425 kts 327°
2026-02-19 09:36 40.77034 11.43788 37809 ft 425 kts 327°
2026-02-19 09:36 40.85247 11.39291 37803 ft 427 kts 328°
2026-02-19 09:37 40.90791 11.36402 37796 ft 429 kts 329°
2026-02-19 09:37 40.96358 11.33568 37795 ft 429 kts 329°
2026-02-19 09:38 41.01891 11.30728 37835 ft 429 kts 328°
2026-02-19 09:38 41.07478 11.27839 37791 ft 432 kts 328°
2026-02-19 09:39 41.13072 11.24926 37782 ft 432 kts 328°
2026-02-19 09:39 41.18682 11.22012 37778 ft 433 kts 328°
2026-02-19 09:40 41.27109 11.17625 37810 ft 434 kts 328°
2026-02-19 09:41 41.32728 11.14696 37791 ft 434 kts 328°
2026-02-19 09:41 41.38311 11.11770 37785 ft 434 kts 328°
2026-02-19 09:42 41.43946 11.08823 37777 ft 435 kts 328°
2026-02-19 09:42 41.49576 11.05866 37802 ft 435 kts 328°
2026-02-19 09:43 41.55202 11.02901 37793 ft 435 kts 328°
2026-02-19 09:43 41.60834 10.99929 37777 ft 435 kts 328°
2026-02-19 09:44 41.66467 10.96958 37766 ft 435 kts 328°
2026-02-19 09:44 41.74920 10.92486 37756 ft 436 kts 328°
2026-02-19 09:45 41.80522 10.89505 37753 ft 436 kts 328°
2026-02-19 09:45 41.86161 10.86500 37741 ft 436 kts 328°
2026-02-19 09:46 41.91806 10.83500 37765 ft 437 kts 328°
2026-02-19 09:46 41.97454 10.80488 37743 ft 437 kts 328°
2026-02-19 09:47 42.03105 10.77466 37730 ft 438 kts 328°
2026-02-19 09:47 42.08716 10.74316 37729 ft 434 kts 325°
2026-02-19 09:48 42.16890 10.69088 37726 ft 434 kts 324°
2026-02-19 09:49 42.22345 10.65569 37710 ft 435 kts 324°
2026-02-19 09:49 42.27841 10.62098 37710 ft 436 kts 325°
2026-02-19 09:50 42.33348 10.58644 37702 ft 437 kts 325°
2026-02-19 09:50 42.38832 10.55199 37695 ft 438 kts 325°
2026-02-19 09:51 42.44353 10.51706 37686 ft 439 kts 325°
2026-02-19 09:51 42.49889 10.48194 37684 ft 440 kts 325°
2026-02-19 09:52 42.55428 10.44675 37722 ft 440 kts 325°
2026-02-19 09:52 42.63782 10.39358 37693 ft 443 kts 325°
2026-02-19 09:53 42.69363 10.35801 37681 ft 443 kts 325°
2026-02-19 09:53 42.74946 10.32220 37691 ft 445 kts 325°
2026-02-19 09:54 42.80551 10.28619 37689 ft 445 kts 325°
2026-02-19 09:54 42.86164 10.25016 37694 ft 447 kts 325°
2026-02-19 09:55 42.91785 10.21400 37689 ft 446 kts 325°
2026-02-19 09:55 42.97350 10.17813 37674 ft 445 kts 325°
2026-02-19 09:56 43.05761 10.12365 37696 ft 446 kts 325°
2026-02-19 09:57 43.11374 10.08722 37679 ft 446 kts 325°
2026-02-19 09:57 43.16995 10.05070 37677 ft 447 kts 325°
2026-02-19 09:58 43.22629 10.01406 37697 ft 448 kts 325°
2026-02-19 09:58 43.28247 9.97723 37688 ft 447 kts 324°
2026-02-19 09:59 43.33713 9.93740 37683 ft 444 kts 321°
2026-02-19 09:59 43.39029 9.89538 37685 ft 443 kts 321°
2026-02-19 10:00 43.44382 9.85311 37695 ft 443 kts 321°
2026-02-19 10:00 43.52451 9.79054 37695 ft 443 kts 322°
2026-02-19 10:01 43.57828 9.74889 37688 ft 444 kts 322°
2026-02-19 10:01 43.63211 9.70711 37707 ft 444 kts 322°
2026-02-19 10:02 43.68588 9.66526 37692 ft 443 kts 322°
2026-02-19 10:02 43.73948 9.62346 37686 ft 442 kts 322°
2026-02-19 10:03 43.79270 9.58182 37677 ft 442 kts 322°
2026-02-19 10:03 43.84626 9.53996 37688 ft 442 kts 323°
2026-02-19 10:04 43.92642 9.47707 37285 ft 440 kts 322°
2026-02-19 10:04 43.95313 9.45606 37019 ft 441 kts 323°
2026-02-19 10:05 43.98053 9.43633 36753 ft 448 kts 330°
2026-02-19 10:05 44.01029 9.42204 36153 ft 459 kts 339°
2026-02-19 10:05 44.04151 9.41143 35329 ft 464 kts 340°
2026-02-19 10:05 44.07308 9.40108 34434 ft 469 kts 341°
2026-02-19 10:06 44.10484 9.39082 33876 ft 466 kts 341°
2026-02-19 10:06 44.13639 9.38067 33216 ft 465 kts 341°
2026-02-19 10:06 44.16776 9.37049 32611 ft 460 kts 340°
2026-02-19 10:06 44.19877 9.36031 31995 ft 457 kts 340°
2026-02-19 10:07 44.22969 9.35004 31391 ft 454 kts 339°
2026-02-19 10:07 44.26031 9.33981 30790 ft 452 kts 340°
2026-02-19 10:07 44.29044 9.32971 30198 ft 449 kts 340°
2026-02-19 10:07 44.32076 9.31951 29589 ft 447 kts 339°
2026-02-19 10:08 44.35085 9.30936 28962 ft 444 kts 340°
2026-02-19 10:08 44.41040 9.28942 27847 ft 435 kts 340°
2026-02-19 10:08 44.43968 9.27964 27301 ft 431 kts 340°
2026-02-19 10:09 44.46865 9.26995 26774 ft 426 kts 340°
2026-02-19 10:09 44.49735 9.26036 26264 ft 422 kts 340°
2026-02-19 10:09 44.52572 9.25085 25741 ft 418 kts 341°
2026-02-19 10:09 44.55392 9.24136 25222 ft 415 kts 341°
2026-02-19 10:10 44.58185 9.23193 24717 ft 413 kts 341°
2026-02-19 10:10 44.60940 9.22261 24554 ft 401 kts 341°
2026-02-19 10:10 44.62718 9.21661 24486 ft 392 kts 341°
2026-02-19 10:10 44.65330 9.20781 24300 ft 381 kts 341°
2026-02-19 10:11 44.68716 9.19638 23827 ft 375 kts 341°
2026-02-19 10:11 44.70422 9.19059 23552 ft 372 kts 341°
2026-02-19 10:11 44.73689 9.17731 23004 ft 362 kts 330°
2026-02-19 10:11 44.75798 9.15933 22546 ft 349 kts 315°
2026-02-19 10:12 44.77450 9.13516 22067 ft 337 kts 300°
2026-02-19 10:12 44.79431 9.08860 21453 ft 327 kts 297°
2026-02-19 10:12 44.80573 9.06115 21031 ft 324 kts 297°
2026-02-19 10:13 44.81711 9.03393 20615 ft 321 kts 298°
2026-02-19 10:13 44.82839 9.00694 20188 ft 319 kts 298°
2026-02-19 10:13 44.83956 8.98012 19798 ft 316 kts 298°
2026-02-19 10:13 44.85066 8.95343 19366 ft 315 kts 299°
2026-02-19 10:14 44.86173 8.92683 18970 ft 313 kts 299°
2026-02-19 10:14 44.88356 8.87418 18259 ft 309 kts 299°
2026-02-19 10:14 44.89435 8.84812 17884 ft 307 kts 299°
2026-02-19 10:15 44.90506 8.82221 17472 ft 304 kts 299°
2026-02-19 10:15 44.91566 8.79647 17039 ft 303 kts 299°
2026-02-19 10:15 44.92619 8.77084 16636 ft 300 kts 301°
2026-02-19 10:15 44.93663 8.74545 16253 ft 298 kts 301°
2026-02-19 10:16 44.94699 8.72025 15866 ft 296 kts 301°
2026-02-19 10:16 44.96753 8.67019 15115 ft 293 kts 301°
2026-02-19 10:16 44.97758 8.64572 14754 ft 291 kts 301°
2026-02-19 10:17 44.98780 8.62112 14390 ft 289 kts 304°
2026-02-19 10:17 45.00126 8.59986 13983 ft 287 kts 321°
2026-02-19 10:17 45.01814 8.58572 13649 ft 287 kts 337°
2026-02-19 10:17 45.03743 8.57860 13273 ft 287 kts 347°
2026-02-19 10:18 45.05696 8.57325 12881 ft 285 kts 347°
2026-02-19 10:18 45.07638 8.56796 12528 ft 283 kts 348°
2026-02-19 10:18 45.09559 8.56272 12172 ft 280 kts 348°
2026-02-19 10:18 45.11467 8.55750 11804 ft 278 kts 348°
2026-02-19 10:19 45.13360 8.55229 11435 ft 276 kts 348°
2026-02-19 10:19 45.15217 8.54711 11301 ft 267 kts 348°
2026-02-19 10:19 45.17008 8.54210 11178 ft 257 kts 348°
2026-02-19 10:19 45.18738 8.53729 10955 ft 251 kts 348°
2026-02-19 10:20 45.20446 8.53255 10640 ft 249 kts 348°
2026-02-19 10:20 45.23827 8.52313 9985 ft 246 kts 348°
2026-02-19 10:20 45.25502 8.51847 9674 ft 244 kts 348°
2026-02-19 10:21 45.27165 8.51387 9329 ft 242 kts 348°
2026-02-19 10:21 45.30548 8.50558 8331 ft 250 kts
2026-02-19 10:21 45.32187 8.51283 7934 ft 252 kts 34°
2026-02-19 10:22 45.33256 8.53237 7523 ft 256 kts 69°
2026-02-19 10:22 45.33660 8.55703 7166 ft 256 kts 77°
2026-02-19 10:22 45.33997 8.58180 6781 ft 255 kts 78°
2026-02-19 10:22 45.34327 8.60650 6399 ft 253 kts 77°
2026-02-19 10:23 45.34500 8.63118 6117 ft 249 kts 98°
2026-02-19 10:23 45.33868 8.65320 5922 ft 240 kts 130°
2026-02-19 10:23 45.32551 8.66690 5826 ft 238 kts 160°
2026-02-19 10:23 45.30935 8.67215 5699 ft 239 kts 169°
2026-02-19 10:24 45.29302 8.67659 5563 ft 239 kts 169°
2026-02-19 10:24 45.26033 8.68548 5300 ft 239 kts 169°
2026-02-19 10:24 45.24400 8.68996 5165 ft 240 kts 169°
2026-02-19 10:25 45.22747 8.69451 5039 ft 243 kts 169°
2026-02-19 10:25 45.21085 8.69907 4895 ft 244 kts 169°
2026-02-19 10:25 45.19426 8.70359 4712 ft 239 kts 169°
2026-02-19 10:25 45.17834 8.70846 4533 ft 230 kts 159°
2026-02-19 10:26 45.16510 8.71992 4443 ft 222 kts 133°
2026-02-19 10:26 45.15689 8.73796 4381 ft 218 kts 107°
2026-02-19 10:26 45.15511 8.75891 4333 ft 214 kts 79°
2026-02-19 10:26 45.15956 8.77809 4282 ft 198 kts 55°
2026-02-19 10:27 45.16813 8.79231 4231 ft 190 kts 42°
2026-02-19 10:27 45.17760 8.80536 4191 ft 190 kts 42°
2026-02-19 10:27 45.18706 8.81842 4147 ft 189 kts 43°
2026-02-19 10:27 45.19718 8.83023 4105 ft 187 kts 28°
2026-02-19 10:28 45.20904 8.83742 4065 ft 186 kts 13°
2026-02-19 10:28 45.23471 8.83674 3988 ft 187 kts 348°
2026-02-19 10:28 45.24743 8.83312 4006 ft 187 kts 346°
2026-02-19 10:29 45.25956 8.82677 3963 ft 185 kts 341°
2026-02-19 10:29 45.27188 8.82189 3998 ft 183 kts 346°
2026-02-19 10:29 45.28416 8.81809 4061 ft 187 kts 348°
2026-02-19 10:29 45.29689 8.81449 4053 ft 187 kts 348°
2026-02-19 10:30 45.30921 8.81109 4056 ft 188 kts 348°
2026-02-19 10:30 45.32210 8.80757 4055 ft 186 kts 348°
2026-02-19 10:30 45.33468 8.80413 4053 ft 184 kts 348°
2026-02-19 10:30 45.34683 8.80081 4060 ft 185 kts 349°
2026-02-19 10:31 45.35942 8.79736 4065 ft 186 kts 348°
2026-02-19 10:31 45.37217 8.79387 4047 ft 187 kts 348°
2026-02-19 10:31 45.38495 8.79038 3909 ft 187 kts 348°
2026-02-19 10:31 45.39763 8.78691 3776 ft 185 kts 348°
2026-02-19 10:32 45.40984 8.78356 3648 ft 183 kts 348°
2026-02-19 10:32 45.43469 8.77675 3366 ft 183 kts 348°
2026-02-19 10:32 45.44687 8.77341 3239 ft 187 kts 348°
2026-02-19 10:33 45.45954 8.76993 3133 ft 186 kts 348°
2026-02-19 10:33 45.47154 8.76664 3052 ft 186 kts 347°
2026-02-19 10:33 45.48390 8.76325 3056 ft 171 kts 348°
2026-02-19 10:33 45.49484 8.76025 3026 ft 150 kts 347°
2026-02-19 10:34 45.50476 8.75752 2933 ft 141 kts 348°
2026-02-19 10:34 45.51413 8.75494 2794 ft 139 kts 347°
2026-02-19 10:34 45.52335 8.75240 2625 ft 137 kts 347°
2026-02-19 10:34 45.53229 8.74995 2470 ft 134 kts 347°
2026-02-19 10:35 45.54137 8.74744 2289 ft 132 kts 347°
2026-02-19 10:35 45.55021 8.74501 2096 ft 131 kts 347°
2026-02-19 10:35 45.55911 8.74256 1918 ft 131 kts 346°
2026-02-19 10:35 45.56803 8.74010 1717 ft 130 kts 347°
2026-02-19 10:36 45.57707 8.73761 1501 ft 130 kts 346°
2026-02-19 10:36 45.59482 8.73272 1144 ft 131 kts 347°
2026-02-19 10:36 45.60372 8.73026 967 ft 129 kts 347°
2026-02-19 10:37 45.61247 8.72782 804 ft 128 kts 346°
2026-02-19 10:37 45.62069 8.72556 740 ft 96 kts 349°
2026-02-19 10:37 45.62460 8.72452 740 ft 38 kts 348°
2026-02-19 10:37 45.62713 8.72381 741 ft 37 kts 349°
2026-02-19 10:38 45.62954 8.72313 741 ft 28 kts 349°
2026-02-19 10:38 45.63026 8.72199 741 ft 15 kts 268°
2026-02-19 10:38 45.63008 8.72044 741 ft 16 kts 259°
2026-02-19 10:38 45.62988 8.71891 741 ft 14 kts 259°
2026-02-19 10:39 45.62968 8.71777 740 ft 10 kts 238°
2026-02-19 10:39 45.62914 8.71759 741 ft 5 kts 172°
2026-02-19 10:39 45.62890 8.71749 741 ft 3 kts 220°
2026-02-19 10:39 45.62878 8.71728 740 ft 3 kts 240°
2026-02-19 10:40 45.62867 8.71666 740 ft 8 kts 259°
2026-02-19 10:40 45.62864 8.71641 741 ft 0 kts 258°